Home > Weather > Waren (Müritz) > Past weeks

Flag for Germany Weather for the Past 2 Weeks in Waren (Müritz), Mecklenburg-Western Pomerania, Germany

Now
37 °F

Passing clouds.


Feels Like: 34 °F
Forecast: 35 / 55 °F
Wind: 5 mph from Southwest

Location: Laage

Current Time: Apr 29, 2016 at 12:22:14 AM

Latest Report: Apr 28, 2016 at 11:20 PM


Visibility: N/A

Pressure: 29.95 "Hg

Humidity: 93%

Dew Point: 36 °F

Location of Waren (Müritz)Location

Historic Weather in Waren (Müritz) — Graph

°F

Waren (Müritz) Temperature Yesterday

Maximum temperature yesterday: 48 °F (at 3:20 PM)
Minimum temperature yesterday: 37 °F (at 3:20 AM)
Average temperature yesterday: 42 °F

High & Low Weather Summary for the Past Weeks

 TemperatureHumidityPressure
High59 °F (Apr 16, 2:20 PM)100% (Apr 14, 1:20 AM)30.36 "Hg (Apr 14, 1:20 AM)
Low32 °F (Apr 25, 3:20 AM)27% (Apr 23, 6:20 PM)29.42 "Hg (Apr 26, 3:20 AM)
Average44 °F76%29.81 "Hg
* Reported Apr 13 10:20 PM — Apr 28 10:20 PM, Waren (Müritz), Weather by CustomWeather, © 2016

Note: Actual official high and low records may vary slightly from our data, if they occured in-between our weather recording intervals... More about our weather records

Advertising

Waren (Müritz) Weather History for the Previous 24 Hours

Scroll right to see more
 ConditionsComfort  
Time TempWeatherWind HumidityBarometerVisibility
10:20 PM
Thu, Apr 28
39 °FPassing clouds.5 mph87%29.95 "HgN/A
9:20 PM41 °FPassing clouds.6 mph81%29.92 "HgN/A
8:20 PM43 °FScattered clouds.8 mph76%29.92 "HgN/A
7:20 PM45 °FPartly sunny.9 mph76%29.89 "HgN/A
6:20 PM45 °FPartly sunny.10 mph71%29.89 "HgN/A
5:20 PM45 °FPartly sunny.15 mph71%29.86 "HgN/A
4:20 PM45 °FLight rain. Partly sunny.12 mph76%29.86 "HgN/A
3:20 PM48 °FLight rain. Partly sunny.10 mph62%29.83 "HgN/A
2:20 PM46 °FPartly sunny.12 mph66%29.83 "HgN/A
1:20 PM45 °FScattered showers. Partly sunny.13 mph71%29.83 "HgN/A
12:20 PM41 °FLight rain. Partly sunny.12 mph81%29.80 "Hg5 mi
11:20 AM43 °FPartly sunny.16 mph76%29.77 "HgN/A
10:20 AM41 °FPartly sunny.13 mph87%29.77 "HgN/A
9:20 AM41 °FBroken clouds.14 mph87%29.74 "HgN/A
7:20 AM39 °FDrizzle. Partly sunny.9 mph93%29.71 "HgN/A
6:20 AM39 °FPassing clouds.9 mph93%29.68 "Hg4 mi
5:20 AM39 °FRain. Fog.7 mph93%29.68 "Hg3 mi
4:20 AM37 °FRain. Passing clouds.13 mph93%29.68 "Hg4 mi
3:20 AM37 °FPassing clouds.8 mph100%29.65 "Hg6 mi
2:20 AM39 °FPassing clouds.7 mph93%29.62 "HgN/A
1:20 AM39 °FPassing clouds.6 mph93%29.62 "HgN/A
12:20 AM39 °FSprinkles. Passing clouds.5 mph93%29.62 "HgN/A
Weather by CustomWeather, © 2016

See weather overviewHow to use our weather pages